Tracking 27111 objects as of 28-Mar-2023
HD Live streaming from Space Station
objects crossing your sky now

SL-12 R/B

Track SL-12 R/B now!


NORAD ID: 20413
Int'l Code: 1983-020D
Perigee: 36,127.5 km
Apogee: 165,497.9 km
Inclination: 74.7 °
Period: 5,820.4 minutes
Semi major axis: 107183 km
RCS: 1.9953 m2 (large)
Launch date: March 23, 1983
Source: Commonwealth of Independent States (former USSR) (CIS)
Launch site: TYURATAM MISSILE AND SPACE COMPLEX (TTMTR)

Note: This is a ROCKET BODY
Your satellite tracking list
Your tracking list is empty




NASA's NSSDC Master Catalog

Two Line Element Set (TLE):
1 20413U 83020D   23074.60095063  .00000417  00000-0  00000-0 0  9990
2 20413  74.7020  69.1394 6034985   8.3897 358.8562  0.24740577  8410
Source of the keplerian elements: AFSPC